Date String (YYYY-MM-DD hh:mm:ss) UTC,Instrument flags,Ambient pressure (hPa),Sample flow (lpm),Bypass flow (lpm),Sample temperature (°C),Ambient temperature (°C),ASC tube jacket temperature (°C),LED temperature (°C),Box temperature (°C),Sample RH (%),Span deviation,Mass concentration (μg/m³),Mass concentration (μg/m³),Mass concentration (μg/m³)
DateTimeUTC,F1_M11,P_M11,Q1_M11,Q2_M11,T1_M11,T2_M11,T3_M11,T4_M11,T5_M11,U1_M11,ZSPAN_M11,X0_M11,X2_M11,X1_M11
2022-09-08 05:00:00,,0829.1,4.99,0.00,29.7,28.8,00.0,38.3,31.7,15.8,0002.1,0026.49,0016.47,0015.22
2022-09-08 05:01:00,,0829.1,5.01,0.00,29.8,28.4,00.0,38.3,31.7,15.7,0002.1,0027.43,0016.56,0015.26
2022-09-08 05:02:00,,0829.1,5.00,0.00,29.7,26.8,00.0,38.3,31.5,15.7,0002.3,0028.14,0016.62,0015.30
2022-09-08 05:03:00,,0829.1,5.00,0.00,29.6,26.1,00.0,38.3,31.3,15.8,0002.5,0029.24,0016.70,0015.34
2022-09-08 05:04:00,,0829.1,5.01,0.00,29.6,26.3,00.0,38.2,31.2,15.8,0002.6,0028.41,0016.83,0015.38
2022-09-08 05:05:00,,0829.1,4.99,0.00,29.5,26.6,00.0,38.2,31.1,15.9,0002.9,0028.42,0016.91,0015.40
2022-09-08 05:06:00,,0829.0,5.00,0.00,29.4,27.0,00.0,38.2,31.1,16.0,0002.9,0029.52,0016.87,0015.39
2022-09-08 05:07:00,,0829.0,5.01,0.00,29.4,27.3,00.0,38.2,31.2,16.0,0003.0,0029.53,0016.88,0015.40
2022-09-08 05:08:00,,0829.0,5.00,0.00,29.4,27.7,00.0,38.2,31.2,16.0,0002.8,0029.47,0016.88,0015.41
2022-09-08 05:09:00,,0829.0,5.00,0.00,29.4,27.9,00.0,38.2,31.3,16.1,0002.5,0029.40,0016.89,0015.40
2022-09-08 05:10:00,,0829.0,4.98,0.00,29.5,28.1,00.0,38.2,31.3,16.1,0002.2,0028.98,0016.90,0015.41
2022-09-08 05:11:00,,0829.0,5.01,0.00,29.5,28.2,00.0,38.2,31.4,16.1,0002.3,0029.38,0016.96,0015.39
2022-09-08 05:12:00,,0828.9,5.01,0.00,29.5,28.4,00.0,38.2,31.4,15.9,0002.4,0029.72,0016.95,0015.37
2022-09-08 05:13:00,,0828.9,5.00,0.00,29.6,28.5,00.0,38.2,31.5,15.7,0002.2,0029.87,0016.93,0015.36
2022-09-08 05:14:00,,0828.9,4.99,0.00,29.6,28.6,00.0,38.3,31.5,15.8,0002.1,0029.51,0016.89,0015.35
2022-09-08 05:15:00,,0828.9,5.01,0.00,29.6,28.7,00.0,38.3,31.6,15.8,0002.0,0029.74,0016.83,0015.33
2022-09-08 05:16:00,,0828.9,4.99,0.00,29.7,28.8,00.0,38.3,31.6,15.7,0001.6,0028.85,0016.80,0015.33
2022-09-08 05:17:00,,0828.9,5.01,0.00,29.7,28.8,00.0,38.3,31.7,15.5,0001.4,0027.21,0016.81,0015.38
2022-09-08 05:18:00,,0828.8,4.99,0.00,29.8,28.9,00.0,38.4,31.7,15.4,0001.4,0026.64,0016.83,0015.43
2022-09-08 05:19:00,,0828.9,5.00,0.00,29.8,28.9,00.0,38.4,31.7,15.4,0001.8,0026.79,0016.94,0015.49
2022-09-08 05:20:00,,0828.9,4.99,0.00,29.8,28.1,00.0,38.4,31.7,15.4,0002.0,0026.36,0017.00,0015.53
2022-09-08 05:21:00,,0828.8,5.01,0.00,29.8,27.1,00.0,38.4,31.6,15.4,0002.3,0026.24,0017.02,0015.58
2022-09-08 05:22:00,,0828.9,5.00,0.00,29.7,27.1,00.0,38.4,31.6,15.4,0002.7,0025.46,0017.02,0015.65
2022-09-08 05:23:00,,0829.0,5.00,0.00,29.7,27.3,00.0,38.3,31.5,15.3,0002.7,0024.25,0017.04,0015.70
2022-09-08 05:24:00,,0829.1,4.99,0.00,29.7,27.6,00.0,38.3,31.4,15.4,0002.5,0023.51,0017.06,0015.73
2022-09-08 05:25:00,,0829.3,5.01,0.00,29.7,27.9,00.0,38.3,31.5,15.3,0002.4,0023.57,0017.10,0015.76
2022-09-08 05:26:00,,0829.2,5.00,0.00,29.7,28.1,00.0,38.4,31.5,15.4,0002.6,0023.27,0017.13,0015.82
2022-09-08 05:27:00,,0829.3,5.01,0.00,29.7,28.3,00.0,38.4,31.5,15.3,0002.7,0023.56,0017.18,0015.86
2022-09-08 05:28:00,,0829.3,5.02,0.00,29.7,28.4,00.0,38.4,31.6,15.3,0002.9,0024.33,0017.20,0015.88
2022-09-08 05:29:00,,0829.3,5.00,0.00,29.7,28.6,00.0,38.4,31.6,15.4,0002.8,0024.57,0017.24,0015.88
2022-09-08 05:30:00,,0829.3,4.99,0.00,29.8,28.7,00.0,38.4,31.7,15.5,0002.4,0024.75,0017.20,0015.89
2022-09-08 05:31:00,,0829.3,5.00,0.00,29.8,28.8,00.0,38.5,31.7,15.6,0002.3,0025.28,0017.15,0015.87
2022-09-08 05:32:00,,0829.3,5.01,0.00,29.8,28.9,00.0,38.5,31.7,15.6,0002.1,0025.09,0017.13,0015.85
2022-09-08 05:33:00,,0829.3,4.98,0.00,29.9,28.9,00.0,38.5,31.8,15.6,0001.5,0025.32,0017.14,0015.85
2022-09-08 05:34:00,,0829.3,5.00,0.00,29.9,28.5,00.0,38.5,31.8,15.4,0001.2,0026.12,0017.19,0015.87
2022-09-08 05:35:00,,0829.1,5.01,0.00,29.9,26.9,00.0,38.5,31.6,15.0,0001.3,0026.05,0017.17,0015.90
2022-09-08 05:36:00,,0828.8,5.00,0.00,29.8,26.1,00.0,38.5,31.5,15.0,0001.3,0025.52,0017.12,0015.91
2022-09-08 05:37:00,,0828.7,5.00,0.00,29.7,26.2,00.0,38.4,31.4,15.1,0001.3,0025.80,0017.16,0015.91
2022-09-08 05:38:00,,0828.7,5.00,0.00,29.6,26.6,00.0,38.4,31.3,15.2,0001.2,0025.70,0017.16,0015.93
2022-09-08 05:39:00,,0828.7,4.98,0.00,29.6,26.9,00.0,38.3,31.3,15.2,0001.3,0025.11,0017.19,0015.93
2022-09-08 05:40:00,,0828.7,5.00,0.00,29.5,27.3,00.0,38.3,31.3,15.3,0001.3,0025.87,0017.18,0015.91
2022-09-08 05:41:00,,0828.7,4.99,0.00,29.5,27.6,00.0,38.3,31.3,15.4,0001.7,0026.05,0017.19,0015.90
2022-09-08 05:42:00,,0828.7,5.01,0.00,29.6,27.9,00.0,38.3,31.4,15.1,0001.6,0025.57,0017.14,0015.90
2022-09-08 05:43:00,,0828.7,5.00,0.00,29.6,28.1,00.0,38.3,31.4,15.0,0001.4,0026.73,0017.15,0015.91
2022-09-08 05:44:00,,0828.7,5.01,0.00,29.6,28.2,00.0,38.3,31.4,15.0,0001.9,0026.49,0017.18,0015.92
2022-09-08 05:45:00,,0828.7,4.98,0.00,29.6,28.4,00.0,38.3,31.5,15.0,0002.3,0026.49,0017.15,0015.91
2022-09-08 05:46:00,,0828.7,5.01,0.00,29.6,28.5,00.0,38.3,31.5,15.0,0002.1,0027.96,0017.22,0015.88
2022-09-08 05:47:00,,0828.7,5.00,0.00,29.7,28.6,00.0,38.4,31.6,15.0,0002.1,0028.59,0017.24,0015.86
2022-09-08 05:48:00,,0828.7,5.01,0.00,29.7,28.7,00.0,38.4,31.6,15.0,0001.8,0028.28,0017.32,0015.88
2022-09-08 05:49:00,,0828.7,4.98,0.00,29.7,28.7,00.0,38.4,31.7,14.9,0002.0,0028.68,0017.31,0015.90
2022-09-08 05:50:00,,0828.7,5.01,0.00,29.8,28.8,00.0,38.4,31.7,14.9,0002.0,0029.76,0017.36,0015.91
2022-09-08 05:51:00,,0828.7,4.99,0.00,29.8,28.9,00.0,38.5,31.7,14.9,0002.1,0028.93,0017.35,0015.95
2022-09-08 05:52:00,,0828.7,5.01,0.00,29.8,28.9,00.0,38.5,31.7,14.9,0002.1,0028.40,0017.39,0016.02
2022-09-08 05:53:00,,0828.7,4.99,0.00,29.9,29.0,00.0,38.5,31.8,14.9,0002.0,0028.29,0017.43,0016.07
2022-09-08 05:54:00,,0828.7,5.01,0.00,29.9,29.0,00.0,38.5,31.9,14.9,0002.1,0028.04,0017.51,0016.11
2022-09-08 05:55:00,,0828.7,4.98,0.00,29.9,28.3,00.0,38.6,31.8,14.9,0002.0,0028.35,0017.54,0016.14
2022-09-08 05:56:00,,0828.7,5.00,0.00,29.9,27.1,00.0,38.5,31.7,14.9,0002.1,0027.97,0017.56,0016.18
2022-09-08 05:57:00,,0828.7,5.02,0.00,29.9,27.0,00.0,38.5,31.7,14.9,0002.5,0026.36,0017.53,0016.24
2022-09-08 05:58:00,,0828.7,4.99,0.00,29.8,27.2,00.0,38.5,31.6,15.0,0002.6,0025.64,0017.56,0016.29
2022-09-08 05:59:00,,0828.7,4.99,0.00,29.8,27.6,00.0,38.5,31.5,14.9,0002.7,0025.33,0017.56,0016.30
